DateTimeUTC,F1_A11,F1_S11,BsB_S11,BsG_S11,BsR_S11,BbsB_S11,BbsG_S11,BbsR_S11,BaB_A11,BaG_A11,BaR_A11,Tu_S11,T_S11,Uu_S11,U_S11,P_S11,T1_A11
2021-01-28T14:00:00Z,00000200,21000000,,,,,,,-000.56,-000.22,-000.48,14.9,22.9,,00.0,0632.7,30.7
2021-01-28T14:01:00Z,00000200,21000000,,,,,,,0000.02,0000.02,0000.19,14.8,22.9,,00.0,0632.8,30.7
2021-01-28T14:02:00Z,00000200,21000000,,,,,,,0000.20,-000.43,-000.31,14.8,22.8,,00.0,0632.8,30.7
2021-01-28T14:03:00Z,00000200,61000000,,,,,,,-000.23,-000.09,0000.01,14.8,22.8,,00.0,0632.8,30.7
2021-01-28T14:04:00Z,00000200,41000000,0000.62,-000.04,-000.08,0000.50,-000.23,0000.23,-000.23,0000.33,-000.09,14.8,22.5,,00.0,0633.6,30.7
2021-01-28T14:05:00Z,00000200,01000000,0000.81,0000.21,0000.02,0000.08,-000.20,-000.05,0000.10,-000.18,0000.12,14.8,22.4,,00.0,0633.7,30.7
2021-01-28T14:06:00Z,00000200,01000000,-000.10,0000.21,0000.04,-000.24,0000.07,-000.13,-000.20,-000.60,-000.24,14.7,22.3,,00.0,0633.7,30.7
2021-01-28T14:07:00Z,00000200,01000000,0000.13,-000.06,-000.08,-000.06,0000.07,0000.09,0000.48,0000.29,0000.06,14.7,22.2,,00.0,0633.6,30.7
2021-01-28T14:08:00Z,00000200,01000000,0000.06,0000.23,-000.07,0000.21,-000.13,-000.16,0000.13,0000.79,0000.63,14.8,22.2,,00.0,0633.6,30.7
2021-01-28T14:09:00Z,00000200,01000000,0000.31,0000.24,0000.10,-000.35,0000.05,0000.18,0000.82,0000.78,0000.69,14.8,22.2,,00.0,0633.6,30.7
2021-01-28T14:10:00Z,00000200,01000000,0000.62,0000.05,-000.11,0000.13,-000.12,0000.19,0000.51,0000.53,-000.05,14.8,22.2,,00.0,0633.5,30.7
2021-01-28T14:11:00Z,00000200,01000000,0000.15,-000.09,-000.15,0000.08,-000.12,-000.02,0000.59,0000.23,0000.51,14.9,22.2,,00.0,0633.5,30.8
2021-01-28T14:12:00Z,00000200,01000000,0000.35,-000.05,0000.04,0000.14,-000.20,0000.10,0000.20,-000.11,-000.10,14.9,22.2,,00.0,0633.5,30.8
2021-01-28T14:13:00Z,00000200,01000000,0000.08,0000.04,-000.16,0000.56,-000.04,0000.09,-000.02,0000.42,0000.22,14.9,22.2,,00.0,0633.4,30.8
2021-01-28T14:14:00Z,00000200,01000000,-000.06,0000.16,-000.25,0000.61,0000.07,0000.07,0000.11,0000.31,0000.28,15.0,22.2,,00.0,0633.4,30.8
2021-01-28T14:15:00Z,00000200,01000000,0000.11,0000.34,-000.06,-000.11,-000.00,0000.14,0000.25,0000.04,0000.01,15.0,22.2,,00.0,0633.4,30.8
2021-01-28T14:16:00Z,00000200,01000000,0000.03,0000.32,0000.05,0000.33,-000.07,0000.27,-000.21,-000.13,-000.09,15.1,22.2,,00.0,0633.4,30.8
2021-01-28T14:17:00Z,00000200,01000000,0000.52,0000.41,0000.16,0000.23,0000.03,0000.07,-000.07,0000.29,0000.21,15.1,22.2,,00.0,0633.5,30.8
2021-01-28T14:18:00Z,00000200,01000000,-000.32,0000.15,0000.16,0000.62,-000.06,-000.07,-000.27,-000.06,-000.18,15.2,22.2,,00.0,0633.5,30.8
2021-01-28T14:19:00Z,00000200,01000000,0001.03,-000.06,-000.29,0000.38,0000.05,0000.30,0000.01,-000.60,-000.41,15.2,22.2,,00.0,0633.5,30.8
2021-01-28T14:20:00Z,00000200,01000000,-000.02,0000.05,0000.05,-000.10,-000.19,0000.06,-000.02,0000.23,-000.05,15.3,22.2,,00.0,0633.5,30.8
2021-01-28T14:21:00Z,00000200,01000000,-000.31,0000.04,0000.13,-000.01,0000.17,0000.12,0000.78,0000.95,0000.85,15.2,22.2,,00.0,0633.4,30.8
2021-01-28T14:22:00Z,00000200,01000000,-000.05,-000.03,-000.06,0000.93,-000.08,0000.05,0000.80,0000.28,0000.33,15.2,22.2,,00.0,0633.4,30.8
2021-01-28T14:23:00Z,00000200,01000000,0000.40,0000.23,-000.03,-000.11,0000.03,0000.30,0000.80,0000.72,0000.16,15.3,22.2,,00.0,0633.3,30.8
2021-01-28T14:24:00Z,00000200,01000000,-000.04,0000.12,-000.09,0000.01,0000.03,-000.09,0000.26,0000.92,0000.25,15.3,22.2,,00.0,0633.3,30.8
2021-01-28T14:25:00Z,00000200,01000000,-000.07,-000.06,0000.02,-000.14,0000.05,-000.08,0001.25,0000.73,0000.76,15.4,22.2,,00.0,0633.3,30.8
2021-01-28T14:26:00Z,00000200,01000000,0000.66,0000.09,0000.06,-000.42,-000.12,0000.14,0000.12,0000.34,0000.38,15.4,22.3,,00.0,0633.3,30.8
2021-01-28T14:27:00Z,00000200,01000000,-000.10,-000.05,-000.08,0000.05,-000.17,0000.05,-000.23,-000.40,0000.06,15.4,22.3,,00.0,0633.3,30.8
2021-01-28T14:28:00Z,00000200,01000000,0000.08,0000.20,0000.03,0000.42,-000.01,0000.29,0000.49,0000.77,0000.05,15.5,22.3,,00.0,0633.3,30.9
2021-01-28T14:29:00Z,00000200,01000000,0000.84,0000.34,-000.06,0000.52,-000.07,0000.22,0000.05,-000.05,0000.00,15.6,22.4,,00.0,0633.3,30.9
2021-01-28T14:30:00Z,00000200,01000000,0000.40,0000.19,0000.01,-000.21,-000.00,0000.20,0000.07,-000.30,-000.09,15.7,22.4,,00.0,0633.3,30.9
2021-01-28T14:31:00Z,00000200,01000000,0000.62,0000.25,-000.01,-000.24,0000.07,0000.15,-000.28,0000.02,-000.04,15.7,22.4,,00.0,0633.3,30.8
2021-01-28T14:32:00Z,00000200,01000000,0000.19,-000.17,0000.02,-000.23,-000.01,0000.06,-000.16,-000.52,-000.05,15.7,22.4,,00.0,0633.3,30.8
2021-01-28T14:33:00Z,00000200,01000000,-000.16,0000.07,0000.24,-000.13,0000.04,0000.17,-000.20,-000.46,-000.47,15.7,22.4,,00.0,0633.3,30.8
2021-01-28T14:34:00Z,00000200,01000000,0000.38,0000.29,0000.05,0000.70,-000.16,0000.30,0000.05,0000.10,-000.02,15.6,22.3,,00.0,0633.3,30.8
2021-01-28T14:35:00Z,00000200,01000000,-000.07,-000.16,0000.12,0000.00,-000.13,0000.22,-000.61,-000.17,-000.35,15.5,22.3,,00.0,0633.3,30.8
2021-01-28T14:36:00Z,00000200,01000000,-000.10,0000.11,0000.22,0000.40,-000.00,0000.22,-000.20,-000.45,0000.15,15.4,22.3,,00.0,0633.4,30.8
2021-01-28T14:37:00Z,00000200,01000000,0000.44,0000.11,0000.01,0000.19,-000.06,0000.29,-000.25,0000.27,-000.15,15.4,22.2,,00.0,0633.4,30.8
2021-01-28T14:38:00Z,00000200,01000000,0000.01,0000.09,0000.18,0000.21,0000.06,0000.45,-000.15,-000.42,-000.11,15.4,22.3,,00.0,0633.4,30.8
2021-01-28T14:39:00Z,00000200,01000000,0000.85,-000.04,0000.05,0000.25,-000.24,0000.43,0000.04,-000.27,-000.23,15.5,22.3,,00.0,0633.4,30.8
2021-01-28T14:40:00Z,00000200,01000000,0000.34,0000.24,-000.14,-000.16,-000.01,-000.01,-000.02,0000.01,0000.10,15.5,22.3,,00.0,0633.4,30.8
2021-01-28T14:41:00Z,00000200,01000000,-000.55,0000.12,-000.16,0000.61,-000.00,0000.12,-000.18,-000.10,0000.31,15.5,22.3,,00.0,0633.4,30.8
2021-01-28T14:42:00Z,00000200,01000000,-000.01,0000.23,-000.33,-000.12,-000.10,-000.02,-000.30,0000.11,-000.50,15.5,22.3,,00.0,0633.4,30.8
2021-01-28T14:43:00Z,00000200,01000000,0001.44,0000.25,0000.14,0000.36,-000.07,0000.03,0000.17,0000.25,0000.22,15.6,22.3,,00.0,0633.4,30.8
2021-01-28T14:44:00Z,00000200,01000000,0000.80,0000.02,0000.15,0000.64,0000.01,0000.27,0000.22,-000.37,0000.12,15.6,22.3,,00.0,0633.3,30.8
2021-01-28T14:45:00Z,00000200,01000000,-000.47,0000.34,-000.13,0000.22,-000.10,0000.07,-000.12,0000.04,0000.15,15.6,22.4,,00.0,0633.3,30.8
2021-01-28T14:46:00Z,00000200,01000000,0000.40,0000.23,0000.08,0000.22,-000.09,-000.03,-000.05,-000.25,-000.09,15.7,22.4,,00.0,0633.3,30.8
2021-01-28T14:47:00Z,00000200,01000000,0000.04,-000.15,0000.17,0000.48,0000.02,0000.07,0000.09,0000.38,0000.04,15.7,22.4,,00.0,0633.3,30.8
2021-01-28T14:48:00Z,00000200,01000000,-000.02,0000.11,0000.15,0000.45,0000.07,-000.06,0000.46,-000.32,0000.25,15.7,22.4,,00.0,0633.3,30.7
2021-01-28T14:49:00Z,00000200,01000000,0000.41,0000.30,0000.12,-000.46,0000.02,-000.03,0000.19,0000.73,-000.02,15.6,22.3,,00.0,0633.3,30.7
2021-01-28T14:50:00Z,00000200,01000000,0000.00,-000.11,0000.10,0000.59,-000.11,-000.03,0000.69,0000.78,0000.52,15.6,22.3,,00.0,0633.3,30.7
2021-01-28T14:51:00Z,00000200,01000000,0000.33,0000.27,0000.38,0000.11,0000.32,-000.07,0000.43,0000.79,0000.36,15.5,22.3,,00.0,0633.3,30.7
2021-01-28T14:52:00Z,00000200,01000000,0000.02,0000.24,-000.02,0000.17,0000.11,0000.19,0000.78,0000.36,0000.55,15.5,22.2,,00.0,0633.3,30.7
2021-01-28T14:53:00Z,00000200,01000000,-000.23,0000.12,0000.19,0000.45,-000.13,0000.01,0000.26,0000.38,0000.05,15.5,22.2,,00.0,0633.3,30.8
2021-01-28T14:54:00Z,00000200,01000000,0000.20,0000.13,0000.16,0000.25,-000.06,0000.01,0000.50,0000.66,0000.40,15.6,22.3,,00.0,0633.3,30.8
2021-01-28T14:55:00Z,00000200,01000000,0000.02,0000.12,0000.23,0000.20,-000.07,0000.23,0000.05,0000.03,0000.24,15.6,22.3,,00.0,0633.4,30.8
2021-01-28T14:56:00Z,00000200,01000000,0000.33,0000.25,0000.05,0000.22,-000.07,0000.34,0000.48,0000.22,-000.09,15.7,22.4,,00.0,0633.4,30.8
2021-01-28T14:57:00Z,00000200,41000000,,,,,,,-000.41,-000.10,-000.12,15.8,22.4,,00.0,0633.3,30.8
2021-01-28T14:58:00Z,00000200,61000000,,,,,,,0000.05,0000.05,-000.23,15.4,22.6,,00.0,0632.5,30.8
2021-01-28T14:59:00Z,00000200,21000000,,,,,,,0000.10,0000.03,0000.56,15.4,22.7,,00.0,0632.5,30.8
